Location: Newark
(43.0000°N, 1.6781°W)
Time: 10:56:53
(UTC+00:00)

Explorer 7 - Pass Details

Date: 24 April 2021
Orbit: 484 x 677 km, 50.3° (Epoch: 07 May)

Event Time Altitude Azimuth Distance (km) Brightness Sun altitude
Rises 00:07:16 0° 300° (WNW) 2,785 10.8 -34.1°
Enters shadow 00:08:26 - 300° (WNW) 2,328 10.3 -34.1°
Reaches altitude 10° 00:09:29 10° 300° (WNW) 1,917 - -34.1°
Maximum altitude 00:13:53 89° 18° (NNE) 620 - -34.1°
Drops below altitude 10° 00:18:34 10° 121° (ESE) 2,027 - -34.0°
Sets 00:20:57 0° 122° (ESE) 2,959 - -34.0°
